Flight Track Log - Related Links

Times and Time Zones

All times are in EDT time to prevent confusion due to time zone crossing. See the ENY3341 flight status page for this flight to view local times or setup timezone preferences in your user account.

Time Position Orientation Groundspeed Altitude Reporting Facility
EDT Latitude Longitude Course Direction KTS MPH feet Rate Location/Type
Fri 03:52:41 PM 32.8833 -97.0500 275° West 163 188 1,200  Level Dallas / Fort Worth TRACON
Fri 03:54:08 PM 32.8117 -97.0528 182° South 198 228 4,200 1,812 Climbing Fort Worth Center
Fri 03:55:00 PM 32.8439 -97.3430 270° West  Level Estimated
Fri 03:55:10 PM 32.7472 -97.0544 181° South 230 265 5,700  Level Fort Worth Center
Fri 03:56:00 PM 32.7655 -97.2976 154° Southeast  Level FlightAware Approximate
Fri 03:56:12 PM 32.6961 -97.1131 224° Southwest 262 302 7,800  Level Fort Worth Center
Fri 03:57:00 PM 32.6908 -97.3461 275° West  Level FlightAware Approximate
Fri 03:57:15 PM 32.6947 -97.2022 269° West 270 311 10,000  Level Fort Worth Center
Fri 03:58:00 PM 32.6987 -97.4493 275° West  Level FlightAware Approximate
Fri 03:58:17 PM 32.7025 -97.3053 275° West 288 331 11,500  Level Fort Worth Center
Fri 03:59:19 PM 32.7081 -97.4128 274° West 324 373 12,800 1,452 Climbing Fort Worth Center
Fri 04:00:21 PM 32.7150 -97.5228 274° West 330 380 14,500 1,548 Climbing Fort Worth Center
Fri 04:01:23 PM 32.7211 -97.6444 273° West 339 390 16,000 1,381 Climbing Fort Worth Center
Fri 04:02:27 PM 32.7275 -97.7686 274° West 344 396 17,400 1,429 Climbing Fort Worth Center
Fri 04:03:29 PM 32.7261 -97.8853 269° West 349 402 19,000 1,597 Climbing Fort Worth Center
Fri 04:04:31 PM 32.7258 -97.9983 270° West 345 397 20,700 1,452 Climbing Fort Worth Center
Fri 04:05:33 PM 32.7108 -98.1189 262° West 342 394 22,000 629 Climbing Fort Worth Center
Fri 04:06:35 PM 32.6950 -98.2411 261° West 376 433 22,000  Level Fort Worth Center
Fri 04:07:38 PM 32.6769 -98.3825 261° West 402 463 22,000  Level Fort Worth Center
Fri 04:08:40 PM 32.6647 -98.5014 263° West 412 474 22,000  Level Fort Worth Center
Fri 04:09:42 PM 32.6464 -98.6386 261° West 418 481 22,000  Level Fort Worth Center
Fri 04:10:44 PM 32.6256 -98.8011 261° West 417 480 22,000  Level Fort Worth Center
Fri 04:11:33 PM 32.6108 -98.9122 261° West 419 482 22,000 -387 Level Fort Worth Center
Fri 04:11:46 PM 32.6064 -98.9386 259° West 421 484 21,600 -2,720 Descending Fort Worth Center
Fri 04:12:48 PM 32.5900 -99.0703 262° West 409 471 18,600 -2,903 Descending Fort Worth Center
Fri 04:13:50 PM 32.5728 -99.1969 261° West 392 451 15,600 -2,928 Descending Fort Worth Center
Fri 04:14:53 PM 32.5558 -99.3192 261° West 381 438 12,500 -2,942 Descending Fort Worth Center
Fri 04:15:34 PM 32.5447 -99.4117 262° West 346 398 10,500 -2,164 Descending Fort Worth Center
Fri 04:15:54 PM 32.5397 -99.4328 254° West 359 413 10,300 -1,807 Descending Fort Worth Center
Fri 04:16:57 PM 32.5269 -99.5411 262° West 301 346 8,000 -2,448 Descending Fort Worth Center
Fri 04:17:59 PM 32.5281 -99.6269 271° West 276 318 5,200 -2,226 Descending Fort Worth Center
Fri 04:19:01 PM 32.5047 -99.6856 245° Southwest 247 284 3,400 -1,412 Descending Fort Worth Center
Fri 04:19:58 PM 32.4597 -99.6847 179° South 145 167 2,400 -774 Descending Fort Worth Center
Fri 04:21:05 PM 32.4156 -99.6853 181° South 165 190 1,800 -537 Descending Fort Worth Center

Login

Don't have an account? Register now (free) for customized features, flight alerts, and more!